Tracking 33165 objects as of 8-Feb-2026
HD Live streaming from Space Station
objects crossing your sky now

SITRO-AIS-64

Track SITRO-AIS-64 now!
10-day predictions
SITRO-AIS-64 is classified as:


NORAD ID: 67292
Int'l Code: 2025-313AW
Perigee: 498.8 km
Apogee: 513.5 km
Inclination: 97.4 °
Period: 94.6 minutes
Semi major axis: 6877 km
RCS: Unknown
Launch date: December 28, 2025
Source: (TBD)
Launch site: VOSTOCHNY COSMODROME (VOSTO)

Uplink (MHz):
Downlink (MHz): 401.123
Beacon (MHz):
Mode: 2k4 GMSK_USP
Call sign: SC2352
Status: Unknown

Your satellite tracking list
Your tracking list is empty




NASA's NSSDC Master Catalog

Two Line Element Set (TLE):
1 67292U 25313AW  26038.90785115  .00012557  00000-0  54730-3 0  9997
2 67292  97.4063 115.7476 0010707  91.5483 268.6980 15.22272226  6290
Source of the keplerian elements: AFSPC